Weather History for Hurlburt Field, FL

Change the Weather History Date:

Wednesday, November 21, 2012

  Actual Average Record
Temperature  
Mean Temperature 59 °F -  
Max Temperature 73 °F 67 °F 77 °F (1997)
Min Temperature 45 °F 48 °F 30 °F (2008)
Degree Days  
Heating Degree Days 6    
Growing Degree Days 9 (Base 50)    
Moisture  
Dew Point 51 °F    
Average Humidity 63    
Maximum Humidity 99    
Minimum Humidity 47    
Precipitation  
Precipitation 0.00 in - - ()
Sea Level Pressure  
Sea Level Pressure 30.13 in    
Wind  
Wind Speed 7 mph (North)    
Max Wind Speed 13 mph    
Max Gust Speed -    
Visibility 10 miles    
Events Rain    
Averages and records for this station are not official NWS values.
T = Trace of Precipitation, MM = Missing Value Source: NWS Daily Summary

Daily Weather History Graph

Daily Weather History Graph

Search for Another Location

Airport:

Trip Planner

Search our weather history database for the weather conditions in past years. The results will help you decide how hot, cold, wet, or windy it might be!

Date:

Astronomy

Nov. 21, 2012 Rise Set
Actual Time 6:18 AM CST 4:47 PM CST
Civil Twilight 5:52 AM CST 5:12 PM CST
Nautical Twilight 5:23 AM CST 5:42 PM CST
Astronomical Twilight 4:54 AM CST 6:11 PM CST
Moon 12:40 PM CST (11/21) 12:02 AM CST (11/21)
Length of Visible Light 11h 20m
Length of Day
10h 29m
First Quarter, 62% of the Moon is Illuminated
Nov 21
First Quarter
Nov 28
Full
Dec 6
Last Quarter
Dec 13
New
Dec 19
First Quarter

Hourly Weather History & Observations

Time (CST) Temp. Windchill Dew Point Humidity Pressure Visibility Wind Dir Wind Speed Gust Speed Precip Events Conditions
12:55 AM 51.3 °F - 50.4 °F 97% 30.12 in 10.0 mi North 4.6 mph - N/A   Partly Cloudy
1:55 AM 48.2 °F - 47.7 °F 98% 30.12 in 10.0 mi North 4.6 mph - N/A   Clear
2:55 AM 47.5 °F - 47.3 °F 99% 30.13 in 10.0 mi North 6.9 mph - N/A   Clear
3:55 AM 47.3 °F - 47.1 °F 99% 30.13 in 10.0 mi North 5.8 mph - N/A   Clear
4:55 AM 45.9 °F 42.9 °F 45.5 °F 99% 30.13 in 10.0 mi North 5.8 mph - N/A   Clear
5:55 AM 45.5 °F 42.5 °F 45.1 °F 99% 30.14 in 10.0 mi North 5.8 mph - N/A   Clear
6:55 AM 47.1 °F - 46.8 °F 99% 30.17 in 10.0 mi North 6.9 mph - N/A   Clear
7:55 AM 53.4 °F - 51.8 °F 94% 30.18 in 10.0 mi North 8.1 mph - N/A   Clear
8:55 AM 62.6 °F - 51.6 °F 67% 30.19 in 10.0 mi North 9.2 mph - N/A   Clear
9:55 AM 68.7 °F - 51.3 °F 54% 30.18 in 10.0 mi North 8.1 mph - N/A   Clear
10:13 AM 69.8 °F - 51.8 °F 53% 30.18 in 10.0 mi Variable 4.6 mph - N/A   Light Drizzle
10:36 AM 71.6 °F - 51.8 °F 50% 30.17 in 10.0 mi NNE 8.1 mph - N/A   Clear
10:50 AM 71.6 °F - 51.8 °F 50% 30.16 in 10.0 mi North 8.1 mph - N/A   Light Drizzle
10:55 AM 71.8 °F - 51.4 °F 49% 30.16 in 10.0 mi North 9.2 mph - 0.00 in   Clear
11:14 AM 71.6 °F - 51.8 °F 50% 30.15 in 10.0 mi NE 6.9 mph - N/A   Light Drizzle
11:24 AM 73.4 °F - 51.8 °F 47% 30.14 in 10.0 mi NNE 8.1 mph - N/A   Clear
11:37 AM 73.4 °F - 51.8 °F 47% 30.14 in 10.0 mi NE 5.8 mph - N/A   Light Drizzle
11:38 AM 73.4 °F - 51.8 °F 47% 30.14 in 10.0 mi NNE 8.1 mph - N/A   Clear
11:46 AM 73.4 °F - 51.8 °F 47% 30.14 in 10.0 mi NE 6.9 mph - N/A   Light Drizzle
11:47 AM 73.4 °F - 51.8 °F 47% 30.14 in 10.0 mi NNE 6.9 mph - N/A   Clear
11:55 AM 73.0 °F - 52.2 °F 48% 30.13 in 10.0 mi North 8.1 mph - 0.00 in   Clear
12:13 PM 73.4 °F - 51.8 °F 47% 30.13 in 10.0 mi NNW 8.1 mph - N/A   Light Drizzle
12:25 PM 73.4 °F - 51.8 °F 47% 30.12 in 10.0 mi North 12.7 mph - N/A   Clear
12:35 PM 73.4 °F - 51.8 °F 47% 30.12 in 10.0 mi North 8.1 mph - N/A Rain Light Rain
12:40 PM 73.4 °F - 51.8 °F 47% 30.12 in 10.0 mi Variable 6.9 mph - N/A   Clear
12:51 PM 73.4 °F - 51.8 °F 47% 30.12 in 10.0 mi NNW 9.2 mph - N/A Rain Light Rain
12:55 PM 73.8 °F - 52.3 °F 47% 30.12 in 10.0 mi North 6.9 mph - 0.00 in   Light Drizzle
1:03 PM 73.4 °F - 51.8 °F 47% 30.11 in 10.0 mi North 9.2 mph - N/A   Clear
1:20 PM 73.4 °F - 51.8 °F 47% 30.10 in 10.0 mi NNE 11.5 mph - N/A   Light Drizzle
1:29 PM 73.4 °F - 51.8 °F 47% 30.10 in 10.0 mi NNE 9.2 mph - N/A   Clear
1:39 PM 73.4 °F - 51.8 °F 47% 30.10 in 10.0 mi North 9.2 mph - N/A   Light Drizzle
1:45 PM 73.4 °F - 51.8 °F 47% 30.10 in 10.0 mi North 10.4 mph - N/A   Partly Cloudy
1:46 PM 73.4 °F - 51.8 °F 47% 30.10 in 10.0 mi North 12.7 mph - N/A   Light Drizzle
1:49 PM 73.4 °F - 51.8 °F 47% 30.10 in 10.0 mi North 11.5 mph - N/A   Scattered Clouds
1:55 PM 73.2 °F - 51.6 °F 47% 30.10 in 10.0 mi North 10.4 mph - 0.00 in   Partly Cloudy
2:52 PM 73.4 °F - 51.8 °F 47% 30.09 in 10.0 mi North 8.1 mph - N/A Rain Light Rain
2:55 PM 73.6 °F - 52.2 °F 47% 30.09 in 10.0 mi North 10.4 mph - 0.00 in Rain Light Rain
2:57 PM 73.4 °F - 51.8 °F 47% 30.09 in 10.0 mi North 11.5 mph - N/A   Partly Cloudy
3:19 PM 71.6 °F - 51.8 °F 50% 30.09 in 10.0 mi North 9.2 mph - N/A   Light Drizzle
3:37 PM 71.6 °F - 51.8 °F 50% 30.10 in 10.0 mi North 10.4 mph - N/A   Partly Cloudy
3:55 PM 71.4 °F - 52.5 °F 51% 30.10 in 10.0 mi North 8.1 mph - 0.00 in   Partly Cloudy
4:55 PM 66.6 °F - 52.9 °F 61% 30.12 in 10.0 mi NNE 3.5 mph - N/A   Clear
5:55 PM 61.7 °F - 52.7 °F 72% 30.13 in 10.0 mi Calm Calm - N/A   Clear
6:55 PM 56.3 °F - 52.3 °F 87% 30.14 in 10.0 mi Calm Calm - N/A   Clear
7:55 PM 52.7 °F - 50.2 °F 91% 30.16 in 10.0 mi North 3.5 mph - N/A   Clear
8:55 PM 51.6 °F - 49.6 °F 93% 30.17 in 10.0 mi North 5.8 mph - N/A   Clear
9:55 PM 50.7 °F - 48.9 °F 94% 30.17 in 10.0 mi North 3.5 mph - N/A   Clear
10:55 PM 49.5 °F - 47.7 °F 94% 30.17 in 10.0 mi North 4.6 mph - N/A   Clear
11:55 PM 49.1 °F - 47.3 °F 93% 30.17 in 10.0 mi North 4.6 mph - N/A   Clear